Погода в Ороквайета-Сити

Филиппины     8°29′09″N   123°48′18″E
темп.,
°C
ветер,
м/с
пор.,
м/с
влажн.,
%
обл.,
%
осадки,
мм/ч
давл.,
гПа
погр.,
м
17 апреля, сб
сб1723:00+24зюз2285100 0.1 101047
02:00+24з2388100 0.2 100993
05:00+24зюз2188100 0.4 100949
08:00+27зсз1375100 0.4 1010313
11:00+30ссз3459100 0.4 10101388
14:00+30ссз4457100 0.4 10071207
17:00+28сз2670100 0.2 1007320
20:00+24юз2484100 0.8 101081
18 апреля, вс
вс1823:00+25юз2280100 1.0 101040
02:00+24зюз2386100 1.2 100876
05:00+24юз248299 0.0 1007107
08:00+28зюз2668100 0.0 1009476
11:00+28з3774100 0.3 1008893
14:00+26з41081100 0.9 1006749
17:00+26юз3875100 0.0 1006403
20:00+25зюз3877100 0.1 1008368
19 апреля, пн
пн1923:00+25з2782100 0.1 1008325
02:00+25юз2483100 0.3 1006175
05:00+25зюз2479100 0.2 1006156
08:00+26юз3872100 0.8 1008408
11:00+28зюз2667100 0.0 1008388
14:00+28зюз21161100 0.2 10051448
17:00+25юз1579100 0.1 1006362
20:00+25зюз2676100 0.1 1008333
20 апреля, вт
вт2023:00+25зюз2672100 0.0 1008325
02:00+24зюз3767100 0.0 1006331
05:00+24зюз1467100 0.0 1006244
08:00+27юз1667100 0.0 1008412
11:00+31зсз3954100 0.0 10071700
14:00+30з41062100 0.3 10061373
17:00+27з3769100 0.1 1006451
20:00+25юз3576100 0.2 1008201
21 апреля, ср
ср2123:00+24зюз127799 0.0 1009116
02:00+24юз127991 0.0 1007125
05:00+23ююз1282100 0.0 100866
08:00+28с1265100 0.0 1009487
11:00+33ссв0547100 0.0 10071711
14:00+33зсз1445100 0.3 10061687
17:00+30зюз1363100 0.7 1006237
20:00+25зюз227089 0.7 100982